Temp
58 58 58 57 57 57 57 57 57 57 57 58 58 58 58 58 58 72 66 63 66 64 64 82 82 82 82 79 84 84 68 65 69 73 74 85 80 89 91 88 92 94 92 92 93
57 57 58 57 57 57 57 57 56 57 57 57 57 58 58 57 72 70 63 63 64 65 77 76 75 78 76 78 80 75 69 70 78 79 78 81 82 83 84 86 86 89 93 91 91
57 57 57 57 57 57 57 56 56 57 57 57 57 58 57 60 70 66 62 63 65 67 80 79 77 77 72 78 78 76 68 76 79 83 83 78 79 84 81 79 86 86 91 92 89
56 56 57 57 57 57 56 56 56 57 57 57 57 58 58 69 59 70 64 64 66 74 79 76 75 71 71 71 78 70 76 77 79 81 80 77 80 77 81 83 90 92 93 93 91
56 56 56 56 56 56 56 56 56 57 57 57 58 58 65 68 62 75 66 71 78 77 73 72 70 69 66 72 73 71 73 77 79 79 80 80 76 76 78 85 89 90 90 90 91
56 56 55 56 56 56 56 56 56 56 57 58 58 57 66 59 72 76 75 75 75 74 72 71 67 69 64 66 66 71 71 71 73 73 76 73 74 76 78 85 83 84 86 88 89
56 55 55 55 55 55 55 55 55 56 57 58 58 67 66 59 74 77 75 71 74 72 68 72 70 66 68 63 71 69 62 66 69 72 72 75 68 70 78 81 81 84 85 87 89
55 55 55 54 54 54 55 54 55 57 57 58 58 68 58 71 77 73 75 73 74 74 71 72 71 66 64 68 64 61 63 56 69 73 75 74 61 75 79 79 79 82 84 85 87
55 55 54 54 54 54 54 54 56 57 57 58 62 65 57 66 68 73 73 66 69 71 71 71 68 63 64 58 56 61 53 58 63 74 73 72 65 75 80 77 77 80 84 85 87
54 54 54 54 54 53 53 54 57 57 61 69 71 61 64 60 67 68 73 68 65 65 65 64 63 58 60 57 46 52 55 58 58 68 69 67 66 73 77 76 76 79 82 84 86
54 54 54 53 53 54 58 65 60 61 64 57 58 59 61 68 70 67 69 66 66 64 54 61 53 51 56 58 57 55 53 52 58 64 62 60 62 67 72 73 73 76 80 82 84
53 53 53 53 53 54 66 60 55 59 54 62 60 62 63 65 58 65 70 59 57 51 57 55 47 56 57 56 54 53 50 50 57 62 60 59 59 65 69 70 72 73 75 79 82
53 53 53 53 53 58 60 56 64 62 57 55 60 60 61 64 57 59 64 59 54 49 51 47 51 58 53 52 49 50 48 50 51 57 60 56 53 58 65 69 71 73 75 78 80
53 53 52 51 52 61 57 63 64 61 49 48 55 59 63 64 54 65 65 58 53 48 51 49 57 52 51 48 51 44 54 52 51 49 42 57 42 56 63 66 70 71 72 73 77
53 52 52 52 59 60 58 63 63 57 30 49 55 68 64 56 58 59 68 58 49 49 50 44 49 49 48 49 52 46 54 51 50 48 47 48 45 53 62 60 64 69 73 76 77
52 52 52 58 62 60 63 62 58 40 27 46 54 52 53 55 55 59 58 62 59 50 51 49 58 53 51 54 54 56 51 51 51 47 33 45 46 48 55 60 66 71 73 75 76
51 50 58 64 57 62 61 58 39 31 46 44 46 51 50 47 49 51 49 46 40 31 36 46 45 53 53 46 53 48 41 30 30 31 30 49 47 52 62 64 66 67 69 74 77
51 50 53 60 64 61 59 47 31 39 42 49 48 50 43 46 46 46 44 42 44 41 35 35 32 37 50 48 44 46 42 28 20 26 33 49 41 50 57 60 62 62 62 64 63
50 61 61 58 61 60 53 32 33 43 45 44 48 43 44 46 43 44 44 41 41 41 29 31 33 50 51 54 51 44 36 45 32 37 33 42 49 52 53 57 59 60 60 59 59
62 61 56 59 60 58 41 33 42 47 47 46 38 42 38 43 40 42 40 44 41 45 46 37 28 44 49 52 53 45 49 32 34 22 22 37 39 38 46 49 56 56 56 56 55
58 56 56 61 59 47 33 37 44 49 48 43 41 39 41 39 41 41 40 45 44 43 47 42 32 35 43 41 39 41 37 31 35 33 24 25 36 52 45 50 54 55 57 55 52
57 40 59 60 41 38 36 45 40 47 49 46 45 43 41 42 40 40 39 43 48 48 38 41 31 27 34 46 50 48 34 36 27 25 29 31 35 56 53 56 56 55 56 55 49
53 53 59 56 33 36 44 43 45 44 46 44 42 45 46 41 35 40 42 49 49 46 39 40 31 22 30 41 39 30 32 32 31 32 28 25 34 55 53 53 54 51 53 50 46
50 32 45 50 54 45 42 42 40 46 44 46 44 46 43 40 44 38 40 47 49 47 45 44 33 26 21 27 32 28 31 33 31 25 28 31 37 47 47 46 49 46 49 45 43
47 37 47 32 34 44 44 42 40 38 45 46 42 43 41 35 37 37 42 43 46 47 45 41 26 30 31 36 37 35 33 36 31 32 26 36 39 46 46 48 46 46 46 42 43
35 38 47 48 45 44 40 40 40 42 41 41 40 43 43 36 37 31 38 40 38 43 40 41 28 32 28 36 36 33 38 39 40 40 41 42 42 49 53 51 43 45 46 43 43
57 55 51 42 43 40 41 42 41 44 44 46 44 41 39 42 46 46 46 44 43 39 38 37 31 27 23 34 33 26 36 40 41 44 43 36 40 50 46 46 40 45 48 45 44
MSLP
1023.23 1022.97 1023.16 1023.03 1023.12 1022.68 1022.35 1022.14 1021.93 1021.47 1021.25 1020.54 1020.08 1019.76 1019.08 1018.45 1017.10 1016.28 1016.72 1018.41 1017.95 1017.11 1016.01 1013.60 1012.49 1012.07 1011.76 1011.13 1010.31 1009.79 1008.75 1006.43 1005.61 1004.73 1004.44 1004.06 1004.42 1003.90 1003.97 1003.47 1002.94 1003.11 1003.35 1004.18 1005.11
1023.55 1023.24 1023.21 1022.92 1023.25 1022.65 1022.50 1022.35 1021.86 1021.37 1021.18 1020.56 1020.07 1019.73 1019.27 1018.70 1016.50 1016.56 1018.75 1018.47 1017.78 1017.05 1015.22 1013.82 1012.44 1011.97 1011.14 1010.23 1009.80 1009.48 1007.63 1005.95 1005.77 1005.28 1004.54 1004.64 1004.56 1004.71 1004.24 1003.56 1003.31 1003.18 1003.63 1005.04 1005.45
1024.06 1023.55 1023.38 1023.40 1023.07 1022.52 1022.50 1022.16 1021.67 1021.29 1021.09 1020.54 1020.08 1019.65 1019.11 1018.66 1016.07 1017.19 1018.92 1018.45 1017.83 1017.02 1014.99 1014.05 1013.22 1012.08 1010.91 1009.85 1009.08 1008.58 1006.88 1006.62 1005.97 1005.27 1004.94 1005.45 1005.06 1005.23 1004.80 1003.99 1003.36 1003.01 1003.20 1003.97 1005.17
1024.21 1023.83 1023.61 1023.26 1022.92 1022.81 1022.57 1021.99 1021.50 1021.22 1020.88 1020.41 1019.92 1019.43 1019.00 1017.69 1016.36 1017.82 1018.57 1018.13 1017.57 1016.58 1014.69 1013.45 1012.88 1011.78 1010.52 1009.43 1008.70 1008.19 1007.49 1006.97 1006.68 1006.43 1005.72 1005.34 1005.65 1005.20 1005.06 1004.47 1004.13 1003.58 1003.52 1003.75 1004.37
1024.21 1023.95 1023.65 1023.33 1023.06 1022.77 1022.42 1022.00 1021.52 1021.25 1020.94 1020.41 1019.96 1019.56 1018.39 1016.65 1017.76 1017.97 1018.18 1017.48 1016.52 1015.48 1014.88 1014.02 1013.36 1012.75 1011.22 1009.93 1009.20 1008.39 1007.94 1007.43 1006.94 1006.74 1006.16 1005.89 1005.72 1005.43 1004.74 1005.05 1004.94 1004.52 1004.11 1004.05 1004.11
1024.27 1024.07 1023.73 1023.47 1023.23 1022.89 1022.54 1022.15 1021.60 1021.34 1020.93 1020.38 1019.97 1019.68 1018.20 1017.28 1018.47 1017.90 1017.67 1016.98 1016.29 1015.78 1015.29 1015.17 1014.69 1014.13 1012.87 1011.66 1010.85 1009.69 1008.87 1008.15 1007.81 1007.41 1006.84 1006.23 1005.79 1006.11 1003.62 1005.43 1004.98 1004.80 1004.40 1004.22 1004.09
1024.30 1024.20 1023.82 1023.57 1023.36 1023.03 1022.71 1022.31 1021.76 1021.37 1021.02 1020.62 1020.33 1018.98 1017.57 1018.70 1018.38 1017.87 1017.41 1017.20 1016.98 1016.72 1016.03 1015.53 1015.60 1014.79 1013.20 1012.14 1011.30 1010.50 1009.48 1008.61 1007.50 1006.87 1006.32 1006.58 1005.61 1004.95 1003.72 1005.13 1004.61 1003.85 1003.68 1003.77 1003.48
1024.36 1024.16 1023.88 1023.62 1023.29 1022.97 1022.59 1022.06 1021.56 1021.21 1020.91 1020.62 1020.22 1018.58 1018.28 1019.00 1018.27 1017.77 1017.39 1016.86 1017.04 1017.01 1016.72 1016.42 1016.09 1015.25 1014.22 1013.11 1012.01 1010.91 1009.86 1007.84 1006.11 1005.76 1005.11 1005.32 1002.93 1003.83 1004.21 1004.14 1003.72 1003.39 1003.05 1003.04 1003.00
1024.37 1024.19 1023.92 1023.57 1023.08 1022.70 1022.18 1021.67 1021.44 1021.17 1020.98 1020.64 1019.89 1018.32 1018.31 1019.01 1018.21 1018.01 1017.95 1017.55 1017.24 1016.73 1016.54 1016.41 1016.08 1014.99 1013.92 1012.86 1011.54 1009.90 1008.19 1006.80 1005.42 1005.30 1004.53 1004.15 1002.75 1003.48 1003.37 1003.38 1003.14 1002.84 1002.16 1001.93 1001.82
1024.29 1024.15 1023.84 1023.39 1022.92 1022.40 1021.95 1021.72 1021.31 1021.15 1020.68 1019.43 1018.67 1018.13 1018.43 1018.38 1018.38 1018.34 1017.94 1017.97 1017.19 1016.55 1015.68 1015.48 1014.99 1013.99 1012.81 1011.84 1010.27 1009.01 1007.90 1006.57 1005.48 1005.30 1004.92 1004.14 1003.08 1003.55 1003.45 1002.98 1002.82 1002.36 1001.57 1001.37 1000.88
1024.30 1024.16 1023.84 1023.38 1022.72 1021.92 1021.18 1021.04 1020.86 1019.72 1019.39 1019.08 1019.10 1018.60 1018.81 1018.66 1018.43 1017.86 1018.00 1017.59 1016.79 1015.90 1015.29 1014.95 1014.72 1012.96 1012.34 1011.99 1011.46 1010.89 1010.06 1008.54 1007.65 1007.14 1006.64 1005.31 1004.29 1003.88 1003.88 1003.70 1003.13 1002.37 1001.69 1001.34 1000.68
1024.34 1024.13 1023.87 1023.47 1022.84 1021.66 1020.10 1020.18 1021.35 1021.17 1020.13 1019.75 1019.47 1019.04 1019.27 1018.98 1017.77 1017.36 1017.96 1017.40 1017.02 1016.25 1015.79 1014.89 1013.98 1013.50 1013.62 1013.39 1012.62 1011.78 1010.67 1009.39 1008.44 1007.88 1007.31 1005.94 1004.66 1004.27 1004.26 1003.57 1003.30 1002.92 1002.23 1001.34 1000.86
1024.33 1024.18 1023.91 1023.41 1022.95 1022.05 1021.47 1021.81 1021.75 1021.44 1019.59 1019.87 1019.44 1018.78 1018.90 1018.77 1018.24 1017.86 1018.26 1017.94 1017.29 1016.91 1016.19 1015.41 1014.77 1014.08 1014.27 1013.57 1012.78 1012.01 1011.07 1010.01 1009.02 1008.23 1007.54 1006.75 1004.99 1004.48 1004.10 1003.74 1003.18 1002.51 1002.05 1001.72 1000.98
1024.32 1024.12 1023.80 1023.20 1023.37 1022.09 1021.89 1022.21 1021.89 1021.87 1019.85 1019.82 1018.90 1018.80 1018.55 1018.43 1018.06 1018.17 1018.35 1018.62 1017.98 1017.13 1016.55 1015.93 1014.84 1014.60 1014.22 1013.47 1013.05 1012.20 1011.88 1011.08 1010.02 1009.11 1007.42 1006.79 1004.05 1003.12 1002.36 1001.45 1001.03 1001.10 1001.18 1001.17 1000.97
1024.26 1024.02 1023.66 1023.17 1022.43 1021.75 1022.71 1022.45 1022.22 1021.77 1020.52 1020.26 1018.94 1019.21 1018.61 1018.62 1018.58 1017.92 1018.19 1018.49 1018.04 1017.45 1017.38 1016.44 1015.56 1014.86 1013.88 1013.57 1013.50 1012.91 1012.43 1011.81 1010.98 1009.73 1008.45 1007.06 1005.19 1003.04 1002.40 1001.26 1001.01 1000.67 1000.10 999.69 1000.03
1024.22 1023.91 1023.39 1022.79 1022.34 1022.90 1022.83 1022.52 1022.08 1020.93 1020.60 1019.76 1019.34 1019.08 1018.72 1018.59 1018.58 1018.40 1018.34 1018.28 1018.30 1017.95 1017.27 1016.16 1015.46 1015.27 1014.55 1014.03 1013.66 1013.01 1012.73 1011.78 1010.69 1009.53 1008.45 1006.92 1005.43 1003.15 1001.97 1000.93 1000.09 999.68 999.76 999.56 999.47
1024.23 1023.94 1023.01 1022.58 1022.39 1023.00 1022.77 1021.73 1021.26 1020.89 1021.33 1019.95 1019.47 1019.44 1019.15 1018.94 1018.86 1018.99 1018.81 1018.79 1019.40 1019.32 1017.80 1016.75 1015.64 1014.78 1015.33 1014.99 1013.99 1013.88 1013.40 1012.18 1010.33 1008.90 1007.71 1006.13 1004.39 1002.39 1001.40 1001.33 1000.62 1000.44 1000.10 999.52 999.22
1023.95 1023.93 1023.73 1023.21 1023.05 1023.03 1022.12 1021.34 1021.18 1021.39 1020.68 1020.67 1020.12 1019.62 1019.38 1019.98 1019.74 1019.85 1019.73 1019.44 1020.33 1020.63 1019.91 1017.93 1016.63 1017.18 1016.45 1015.23 1014.42 1013.60 1013.53 1013.72 1012.12 1010.42 1008.52 1006.52 1004.56 1003.71 1003.91 1003.98 1003.66 1003.49 1003.22 1002.52 1001.92
1024.29 1022.98 1022.63 1023.48 1023.41 1022.86 1021.77 1021.56 1021.59 1021.08 1021.49 1021.02 1020.01 1019.56 1019.24 1019.63 1020.20 1020.02 1019.83 1020.17 1021.17 1021.80 1021.96 1020.06 1018.04 1016.90 1016.41 1015.04 1014.88 1014.18 1014.28 1014.42 1013.72 1012.22 1010.17 1007.00 1004.92 1004.88 1005.84 1005.03 1004.53 1004.18 1004.40 1004.55 1004.13
1022.89 1022.39 1022.93 1023.54 1023.35 1022.47 1022.20 1022.23 1021.78 1022.05 1021.97 1021.59 1020.66 1020.75 1020.12 1019.93 1020.50 1020.19 1020.10 1021.12 1021.42 1021.96 1022.18 1021.57 1019.76 1018.41 1016.49 1016.13 1015.03 1015.17 1015.19 1015.30 1014.47 1013.30 1010.93 1007.95 1006.71 1006.34 1006.07 1006.32 1005.22 1004.98 1005.51 1005.63 1005.57
1023.02 1021.83 1023.44 1023.38 1023.06 1022.78 1022.65 1022.35 1022.37 1022.53 1022.53 1022.10 1021.55 1021.28 1020.98 1020.84 1020.92 1020.53 1020.38 1020.64 1021.70 1021.97 1022.16 1021.86 1021.58 1019.56 1018.38 1016.73 1015.76 1015.66 1015.99 1017.28 1016.38 1015.21 1013.01 1010.40 1007.56 1006.59 1007.66 1006.84 1005.59 1005.96 1006.17 1006.69 1006.78
1022.90 1022.72 1023.64 1023.23 1022.91 1023.51 1023.14 1022.62 1023.37 1022.51 1022.74 1022.60 1022.51 1022.00 1021.63 1021.49 1021.11 1020.82 1020.61 1020.72 1021.59 1021.81 1021.91 1022.16 1022.22 1020.56 1018.72 1017.27 1016.53 1016.16 1017.81 1017.96 1017.76 1016.56 1015.38 1012.91 1009.05 1007.30 1007.04 1006.53 1006.54 1006.79 1006.76 1007.45 1007.94
1022.84 1022.74 1023.56 1023.34 1022.59 1022.91 1023.01 1023.01 1023.02 1022.75 1022.46 1022.54 1022.47 1022.40 1022.25 1022.04 1021.80 1021.12 1021.07 1021.07 1021.50 1021.88 1022.24 1022.83 1022.39 1021.35 1018.97 1016.97 1017.89 1018.74 1019.14 1019.63 1019.46 1018.31 1015.66 1013.39 1009.96 1008.74 1008.38 1008.09 1007.93 1008.07 1007.85 1008.20 1008.38
1023.63 1024.00 1023.66 1023.13 1022.43 1022.31 1022.45 1022.55 1022.69 1023.19 1022.90 1022.88 1022.81 1022.75 1022.44 1022.02 1021.92 1021.49 1021.13 1020.94 1021.21 1021.69 1022.14 1022.75 1022.69 1022.42 1021.09 1019.71 1019.26 1018.87 1018.73 1018.95 1018.88 1017.81 1015.61 1013.33 1011.03 1009.26 1009.56 1009.43 1009.27 1009.41 1009.04 1009.41 1009.29
1024.10 1024.13 1023.38 1023.81 1023.57 1022.58 1022.66 1022.71 1022.43 1022.65 1023.00 1022.99 1022.59 1022.52 1022.36 1022.19 1022.13 1021.84 1021.38 1021.16 1021.35 1021.24 1021.43 1021.92 1022.22 1022.06 1021.30 1020.13 1019.06 1017.93 1017.26 1016.88 1016.76 1016.29 1015.70 1012.58 1011.27 1009.56 1010.10 1009.59 1009.97 1009.99 1009.86 1009.71 1009.59
1024.79 1024.13 1023.84 1022.98 1022.99 1022.63 1022.80 1022.45 1022.30 1022.25 1022.81 1022.39 1022.52 1022.44 1022.53 1022.48 1022.49 1022.22 1022.05 1021.73 1021.36 1021.42 1021.26 1021.73 1021.79 1021.64 1020.32 1019.57 1018.27 1016.90 1016.04 1015.18 1014.59 1014.05 1013.24 1011.94 1010.28 1010.32 1009.86 1010.34 1010.85 1010.21 1009.83 1009.97 1009.64
1024.53 1024.39 1023.52 1023.40 1023.07 1022.78 1022.39 1022.17 1022.26 1022.51 1022.76 1022.85 1022.82 1022.86 1022.69 1022.52 1022.52 1022.48 1022.46 1022.19 1021.77 1021.52 1021.24 1021.10 1021.16 1021.12 1019.29 1018.43 1017.22 1015.60 1014.28 1013.15 1012.76 1012.56 1011.90 1011.37 1011.58 1010.81 1010.98 1011.02 1011.39 1010.39 1009.57 1009.56 1009.30
Wind_Speed
13 13 12 13 13 14 15 16 16 16 16 16 17 17 18 20 25 12 13 10 13 19 24 12 7 9 10 14 15 12 14 16 22 21 18 13 7 7 7 12 12 10 9 11 8
13 13 13 14 13 14 15 15 16 16 16 16 17 17 16 18 10 12 7 13 17 19 14 11 8 8 11 13 14 16 15 23 18 19 17 16 17 15 18 14 13 14 7 3 1
13 13 13 12 14 15 16 16 16 16 16 16 16 17 16 16 6 8 10 15 18 20 14 10 10 12 12 15 16 20 23 21 22 22 12 18 20 18 20 22 14 11 11 14 6
11 12 13 14 15 15 16 16 16 17 17 17 16 16 15 11 3 10 9 14 17 18 12 8 8 11 12 14 16 23 25 23 22 22 23 20 19 22 20 20 20 19 9 9 10
11 12 14 15 15 16 16 16 16 17 17 16 14 13 12 5 9 9 7 6 11 10 9 11 11 10 13 13 13 21 21 23 21 22 23 20 23 26 28 22 21 20 18 17 15
11 12 13 15 16 16 16 16 16 16 14 14 9 11 8 5 4 7 8 5 9 9 7 8 8 11 12 16 17 18 24 23 21 22 22 23 23 21 35 24 26 24 24 23 22
10 11 13 15 16 17 16 15 15 13 10 5 4 9 16 8 4 9 6 7 8 8 10 7 9 9 13 15 15 17 22 23 25 21 26 23 27 30 35 25 26 27 22 23 24
10 12 14 16 17 18 16 15 11 6 4 2 5 7 9 2 7 8 9 5 4 8 9 8 8 12 15 13 19 23 23 25 22 23 24 29 32 27 25 26 25 26 25 23 25
10 11 13 16 18 17 16 10 4 4 1 5 7 7 7 5 2 7 8 8 8 4 5 8 11 14 14 15 17 19 21 27 27 21 19 21 28 20 19 21 24 24 24 23 24
10 12 14 17 18 16 14 5 9 9 9 7 4 4 8 7 5 5 5 6 7 10 8 6 8 10 13 13 14 19 21 22 23 18 18 24 29 23 23 21 21 23 19 25 22
10 12 14 17 17 17 8 6 8 6 11 11 7 8 7 9 2 6 7 8 7 10 7 8 11 12 17 16 17 17 20 24 24 24 24 25 28 26 24 24 24 23 20 22 23
10 12 14 16 15 19 7 5 7 7 7 6 5 6 3 5 4 6 8 8 12 12 11 12 12 10 10 13 15 17 20 21 23 22 22 25 28 28 26 27 25 27 26 23 22
10 12 14 15 11 8 12 8 5 3 2 4 4 5 6 7 7 9 10 11 12 12 13 14 15 14 9 15 15 17 19 20 22 22 23 23 28 28 29 28 28 27 26 28 24
10 11 14 18 6 3 7 8 5 2 2 4 2 5 4 9 4 2 5 10 12 15 13 11 12 8 15 16 15 17 19 19 21 20 19 19 20 24 22 23 25 31 30 27 28
10 11 12 12 4 4 6 7 3 6 2 1 3 5 6 5 9 7 9 7 14 15 15 15 18 20 16 15 8 15 15 18 22 22 23 23 17 16 20 24 25 26 26 27 28
10 12 12 5 2 5 6 5 5 2 3 3 2 3 9 4 7 7 7 8 12 12 16 17 13 16 15 14 15 15 16 19 23 20 17 22 21 20 20 22 22 21 23 26 22
9 6 6 2 5 5 5 5 1 3 2 3 3 6 9 6 5 10 10 6 7 9 11 20 10 9 4 10 19 10 16 9 13 8 12 17 17 16 12 19 14 16 18 17 24
5 4 2 6 5 5 4 0 1 1 2 1 4 9 3 6 7 9 9 9 7 10 13 10 12 5 10 17 16 16 14 7 9 12 17 19 12 9 20 22 21 19 23 24 26
8 3 3 5 6 5 2 3 3 1 3 5 8 5 1 2 2 5 8 6 5 8 7 11 10 25 23 11 12 13 13 15 13 18 15 13 13 7 25 21 21 22 21 22 23
3 4 6 5 6 7 2 2 4 2 2 3 3 1 6 8 7 8 4 4 3 6 5 8 21 14 19 17 14 10 11 9 3 7 10 14 12 8 11 21 20 22 24 22 21
5 3 5 5 6 5 2 3 4 3 2 3 3 5 6 7 7 10 5 2 2 4 11 14 6 14 21 16 13 14 11 3 6 8 7 9 10 11 17 23 22 19 20 20 20
2 1 3 4 3 0 2 2 2 4 4 3 5 7 7 8 11 10 9 4 3 9 14 4 5 14 22 21 21 13 7 12 5 12 13 14 17 14 21 24 22 22 20 19 18
0 2 3 7 3 3 5 5 2 5 4 3 4 4 6 9 7 6 8 6 8 10 5 7 5 14 15 13 15 6 9 4 9 13 15 14 13 22 22 25 24 23 19 18 19
3 0 3 4 2 5 5 4 6 3 5 5 7 7 9 10 9 8 12 13 6 11 10 14 14 16 16 19 18 18 17 13 9 10 16 19 25 25 19 22 24 23 16 15 15
3 3 2 3 4 6 5 5 6 5 7 4 5 8 9 9 11 16 15 15 18 16 13 6 9 14 18 22 24 25 23 23 16 19 17 26 26 22 19 22 20 18 16 14 12
3 3 3 2 5 7 7 6 8 5 4 5 9 8 10 11 13 17 19 17 18 12 7 5 10 15 21 23 24 25 25 25 22 23 23 26 25 17 21 19 18 15 13 11 13
2 0 2 1 6 5 7 7 6 3 4 8 8 8 11 14 14 16 17 17 18 18 17 17 13 15 22 21 19 18 22 22 20 22 17 13 12 16 20 21 15 17 15 12 8
Wind_Direction
37 33 24 18 8 4 3 352 342 337 335 333 334 333 338 333 303 237 50 5 333 315 302 287 236 250 238 248 250 247 251 249 256 255 260 273 271 257 296 279 277 248 259 37 50
33 27 17 12 0 2 354 343 334 330 326 325 327 326 333 327 295 57 28 344 336 321 317 337 337 316 260 242 231 235 248 247 253 267 284 279 269 273 289 270 229 251 151 218 58
27 25 16 4 359 357 346 338 329 324 319 320 320 320 328 314 232 63 9 338 325 306 315 300 285 276 264 249 236 233 247 263 282 287 273 275 271 270 264 265 253 260 230 179 185
25 18 8 1 357 349 342 337 326 319 317 316 315 318 318 275 58 36 346 312 300 283 309 322 303 277 271 267 247 251 260 268 275 282 282 271 261 264 263 265 275 274 285 290 194
23 12 2 353 348 344 339 331 321 317 312 310 307 310 293 120 41 357 297 282 286 333 347 341 301 322 271 290 290 271 276 282 283 278 274 268 261 275 272 264 268 276 276 273 266
16 5 356 346 342 338 334 325 316 311 304 308 301 293 253 107 311 16 4 0 8 346 338 354 340 327 288 270 272 289 300 291 293 284 280 272 268 265 261 257 260 263 261 261 259
11 360 350 340 336 332 327 316 304 292 296 314 287 279 59 72 333 346 1 5 346 346 328 350 325 300 323 295 268 291 288 280 264 256 254 257 257 246 262 271 273 267 242 251 253
6 357 346 336 333 329 326 312 294 260 312 331 280 268 72 41 341 23 349 317 280 292 288 294 299 290 272 282 280 274 269 268 268 257 252 235 255 252 251 258 258 255 254 243 253
8 357 346 338 333 330 325 310 229 220 261 249 247 276 92 152 21 9 6 340 313 298 290 285 269 265 278 250 264 246 257 266 273 267 263 242 256 267 265 256 263 259 259 247 243
9 358 352 343 335 323 322 275 186 192 209 225 222 203 57 13 16 311 36 320 324 305 235 228 239 253 237 241 265 289 291 287 282 281 273 264 266 264 261 274 268 269 266 254 253
12 0 354 345 333 312 285 195 199 171 48 49 54 80 36 7 219 25 6 309 318 261 331 320 294 289 319 318 306 297 288 282 282 286 286 278 277 276 276 273 269 272 263 257 257
10 358 351 343 325 308 354 68 40 355 98 78 97 103 40 338 293 65 331 344 323 320 303 282 285 336 341 301 292 284 280 275 278 279 273 272 270 270 265 264 260 260 268 263 263
6 355 347 339 319 298 58 51 334 272 227 93 45 30 13 330 343 356 345 335 319 309 306 300 290 299 294 291 287 282 279 284 287 292 288 285 276 271 265 265 265 265 258 257 260
6 357 346 331 284 340 58 4 4 269 159 85 121 90 347 320 223 5 350 329 305 304 301 294 278 280 273 276 284 282 286 291 291 284 275 277 281 273 279 265 242 231 238 247 246
2 351 340 341 339 43 22 350 339 238 208 72 94 4 324 333 312 113 9 331 301 314 306 290 294 292 286 300 299 287 302 292 287 283 284 272 264 269 262 254 253 256 263 237 235
360 339 314 204 130 37 346 319 246 217 101 168 312 328 320 0 326 333 327 298 292 296 283 273 259 256 272 300 277 280 273 282 273 252 254 261 260 270 266 265 263 247 242 256 260
1 350 330 5 41 352 304 235 248 28 180 133 333 321 317 4 324 348 346 16 13 332 339 311 329 244 355 312 307 286 311 298 285 231 242 268 258 262 326 352 329 312 330 291 242
0 219 14 40 20 337 256 103 116 165 271 81 295 303 349 4 3 333 331 323 37 350 313 332 317 306 328 305 294 295 308 287 300 321 309 310 270 36 29 13 8 358 355 344 345
314 161 93 38 343 305 255 76 126 284 21 329 290 279 148 218 291 302 325 355 36 41 360 308 288 327 303 296 315 300 298 310 290 280 270 272 306 30 1 358 3 354 349 342 338
242 170 71 353 322 268 70 102 127 53 316 269 303 354 315 337 327 322 1 341 346 20 314 309 302 297 292 328 285 318 294 306 280 284 300 292 308 341 11 344 351 355 340 337 337
250 220 84 322 272 50 94 130 135 141 300 293 322 289 295 318 284 305 299 277 147 328 317 313 283 296 310 295 309 300 308 278 292 268 303 320 317 355 9 322 339 345 330 332 333
250 103 88 284 87 22 159 104 7 165 188 263 284 274 285 315 297 295 287 282 197 321 313 354 284 290 291 289 275 298 20 14 341 337 309 286 291 312 343 337 349 344 337 336 326
236 128 154 272 145 164 150 155 226 202 214 204 261 253 286 292 305 301 300 312 313 313 308 330 301 310 298 296 48 9 332 327 315 286 282 296 293 328 350 345 339 341 346 336 332
107 111 355 335 297 186 180 201 179 203 266 255 275 288 272 273 278 271 277 293 286 265 299 286 271 260 273 295 306 294 291 279 259 277 292 288 293 301 344 338 329 334 350 338 330
5 254 170 153 246 200 184 207 201 201 207 241 259 241 285 298 296 291 290 313 304 299 286 265 275 278 279 272 279 282 282 284 269 260 257 280 288 300 323 340 334 328 357 339 345
146 168 236 169 156 210 131 229 225 190 228 226 236 283 299 291 280 283 286 291 305 306 291 263 268 274 278 279 276 277 278 275 263 265 262 265 277 342 326 344 332 332 352 350 353
318 94 260 157 215 207 222 217 211 207 241 260 283 293 285 294 308 306 299 289 278 280 279 278 265 272 273 283 294 282 272 262 251 251 264 285 327 321 339 331 341 322 358 358 334